Regional Weather Roundup
Issued by NWS Green Bay, WI

Home | Current Version | Previous Version | Text Only | Print | Product List | Glossary On
Versions: 1 2 3 4 5 6 7 8 9 10 11 12 13 14 15 16 17 18 19 20 21 22 23 24 25 26 27 28 29 30 31 32 33 34 35 36 37 38 39 40 41 42 43 44 45 46 47 48 49 50
875
ASUS43 KGRB 230711
RWRGRB

NORTH-CENTRAL AND NORTHEAST WISCONSIN REGIONAL WEATHER ROUNDUP
NATIONAL WEATHER SERVICE GREEN BAY WI
200 AM CDT FRI JUN 23 2017

WIZ005-009-010>012-018-019-230800-
NORTH CENTRAL WISCONSIN

CITY           SKY/WX    TMP DP  RH WIND       PRES   REMARKS
IRONWOOD       CLEAR     53  52  96 CALM      29.67F
MANITOWISH WTR FOG       53  53 100 CALM      29.70S VSB 3/4
ARBOR VITAE    CLOUDY    59  57  92 CALM      29.70S
EAGLE RIVER    FOG       54  54 100 CALM      29.69F VSB 1/2
LAND O LAKES   CLOUDY    58  56  91 CALM      29.71F
RHINELANDER    FOG       55  55 100 CALM      29.72R VSB 1/2
PHILLIPS       CLOUDY    57  57 100 CALM      29.70S
ANTIGO         CLOUDY    60  60 100 NW6       29.71S
TOMAHAWK       NOT AVBL
MERRILL        CLOUDY    61  61 100 CALM      29.72S
$$

WIZ013-073-230800-
NORTHEAST WISCONSIN

CITY           SKY/WX    TMP DP  RH WIND       PRES   REMARKS
IRON MOUNTAIN  PTCLDY    59  56  89 CALM      29.65F
MARINETTE      LGT RAIN  65  64  97 CALM      29.65F
OCONTO         MOCLDY    65  64  98 SW3       29.64F
$$

WIZ017-030-035>037-045-230800-
CENTRAL WISCONSIN

CITY           SKY/WX    TMP DP  RH WIND       PRES   REMARKS
MEDFORD        CLOUDY    59  59  97 W3        29.72S
WAUSAU         CLOUDY    62  61  96 W5        29.70S
MOSINEE        CLOUDY    61  61 100 W3        29.73S
MARSHFIELD     CLOUDY    63  60  90 NW3       29.71F
WISC RAPIDS    CLOUDY    66  65  96 N6        29.73F
STEVENS POINT  CLOUDY    63  63 100 NW3       29.71F
WAUPACA        CLOUDY    67  67  99 NW3       29.69F
SHAWANO        CLOUDY    66  65  96 SW5       29.69R
CLINTONVILLE   CLOUDY    64  64 100 SW5       29.70R
WAUTOMA        LGT RAIN  65  64  97 NW5       29.70F
$$

WIZ038-039-048-051-230800-
FOX VALLEY

CITY           SKY/WX    TMP DP  RH WIND       PRES   REMARKS
NWS GREEN BAY  CLOUDY    66  66 100 W8        29.68R
APPLETON       RAIN      64  64 100 W5        29.67S
OSHKOSH        LGT RAIN  66  65  96 N3        29.66F
FOND DU LAC    LGT RAIN  67  64  90 NW3       29.68F
$$

WIZ022-050-052-230800-
EAST CENTRAL WISCONSIN

CITY           SKY/WX    TMP DP  RH WIND       PRES   REMARKS
EPHRAIM        PTSUNNY   63  63  99 W3        29.64F
WASHINGTON ISL PTSUNNY   64  63  97 W5        29.63S
STURGEON BAY     N/A     66  66 100 W6          N/A  FOG
MANITOWOC      RAIN      67  65  93 W6        29.68R
SHEBOYGAN      TSTM      67  67 100 CALM      29.67S FOG
$$

LMZ563-521-522-541>543-230800-
LAKESHORE

STATION/POSITION TIME  TEMP    WIND        PRES    VSBY  WAVE
                       AIR SEA DIR/SP/G                  HT/PER
                 (UTC) (F)     (DEG/KT/KT) (MB)    (MI)  (FT/S)
SHEBOYGAN LKSHOR 0700   67     330/  7/  8 1003.9F
KEWAUNEE LKSHORE 0642          300/  3/  6 1003.7F
NORTHPORT PIER   0640   65     220/  3/  4 1003.7F
N MID LAKE BUOY  0650   58 54  200/  8/  8 1003.8F         1/ 5
S GREEN BAY BUOY 0700   67     240/  8/  8 1004.0
CHAMBERS ISLAND  0640   65     210/  5/  8 1004.1R
MENOMINEE LKSHOR 0642          220/  6/  7 1003.6R
$$




USA.gov is the U.S. government's official web portal to all federal, state and local government web resources and services.